国际通讯卫星 4A-F4星 (INTELSAT 4A-F4)

导读

INTELSAT 4A-F4是由国际通信卫星组织(ITSO)发起的全球通信卫星,于1977年5月26日成功发射。作为国际通信卫星家族的一员,它承载着搭建跨洋洲际通信链路的使命,为全球公众提供稳定可靠的卫星通信服务,有力推动了20世纪后期全球电信、广播电视传输网络的互联互通,是早期国际商业卫星通信发展的重要见证。

基本信息
目录编号:
10024
目录名称:
INTELSAT 4A-F4
国际标识:
1977-041A
轨道中心:
EARTH
卫星名称:
国际通讯卫星 4A-F4星
卫星全名:
国际通讯卫星 4A-F4星 (INTELSAT 4A-F4)
卫星状态:
在轨 (已飞行17914 天)
发射日期:
1977-05-26 UTC
国别 :
(ITSO)
星等 :
--
轨道信息
数据来源 国际轨道数据 AOE轨道数据
星历时间 2026-06-12T14:52:39+0800
13小时前
查看轨道信息
2026-06-10T02:00:00+0800
3天前
查看轨道信息
半长轴 42398.967km 42398.598km
偏心率 0.0012156 0.0012261
轨道倾角 8.909° 8.913°
近地点辐角 273.639° 274.671°
升交点赤经 311.189° 311.205°
平近点角 249.618° 60.483°
近地点 35969.289km 35968.476km
远地点 36072.371km 36072.446km
周期 1448.080分钟 1448.061分钟
每日圈数 0.99442 0.994433
详细信息
卫星平台:
HS-353
平衡模式:
自旋稳定
覆盖范围:
全球
运营商:
国际卫星通信公司
运营商所在国:
美国
制造商(研发单位):
休斯公司
制造商所在国:
美国
使用方式:
暂无
卫星简介
从1965年4月至1984年3月,国际通信卫星组织发射了5代、6种不同性能的卫星共计35颗,除6颗卫星因运载火箭和远地点发动机故障而发射失败外,其余29颗卫星均被送到了预定的静止轨道位置。1984年8月前后,国际通信卫星组织利用部署在大西洋、太平洋、印度洋上空的15颗国际通信卫星,为遍布世界各地170多个国家或地区提供电话、电传、电报、电视和数据传输等电信业务;该卫星已退役。
2D轨道图
3D轨道图
轨道高度分析图
轨道倾角分析图
轨道综合分析图
查看轨道综合分析图